QPF
0.00 0.00 0.00 0.00 0.00 0.01 0.01 0.01 0.01 0.00 0.00 0.00 0.00 0.00 0.00 0.00 0.00 0.00 0.00 0.00 0.00 0.00 0.00 0.00 0.00 0.00 0.00 0.00 0.01 0.01 0.02 0.03 0.04 0.07 0.10 0.11 0.10 0.08 0.07 0.04 0.04 0.04 0.04 0.05
0.00 0.00 0.00 0.00 0.00 0.00 0.01 0.01 0.01 0.00 0.00 0.00 0.00 0.00 0.00 0.00 0.00 0.00 0.00 0.00 0.00 0.00 0.00 0.00 0.00 0.00 0.00 0.00 0.01 0.01 0.01 0.02 0.03 0.04 0.04 0.08 0.10 0.08 0.08 0.07 0.08 0.04 0.04 0.06
0.00 0.00 0.00 0.00 0.00 0.00 0.01 0.01 0.02 0.01 0.00 0.00 0.00 0.00 0.00 0.00 0.00 0.00 0.00 0.00 0.00 0.01 0.00 0.00 0.00 0.00 0.00 0.00 0.01 0.01 0.01 0.03 0.03 0.03 0.03 0.04 0.07 0.08 0.09 0.10 0.10 0.06 0.04 0.03
0.00 0.00 0.00 0.00 0.00 0.00 0.00 0.00 0.01 0.00 0.00 0.00 0.00 0.00 0.01 0.01 0.02 0.03 0.01 0.00 0.00 0.01 0.01 0.01 0.00 0.00 0.00 0.00 0.00 0.01 0.01 0.03 0.03 0.04 0.04 0.04 0.04 0.05 0.07 0.07 0.07 0.06 0.03 0.02
0.00 0.00 0.00 0.00 0.00 0.00 0.00 0.00 0.00 0.01 0.01 0.01 0.01 0.01 0.01 0.01 0.03 0.05 0.02 0.00 0.00 0.00 0.00 0.01 0.01 0.00 0.00 0.00 0.00 0.01 0.02 0.03 0.07 0.07 0.04 0.02 0.03 0.05 0.05 0.06 0.08 0.07 0.05 0.03
0.00 0.00 0.00 0.00 0.00 0.00 0.00 0.00 0.00 0.00 0.01 0.01 0.01 0.01 0.01 0.01 0.02 0.03 0.01 0.00 0.00 0.00 0.00 0.01 0.01 0.01 0.00 0.00 0.01 0.01 0.02 0.02 0.02 0.03 0.03 0.02 0.03 0.05 0.06 0.08 0.09 0.07 0.07 0.06
0.00 0.00 0.00 0.00 0.00 0.00 0.00 0.01 0.01 0.01 0.01 0.01 0.01 0.01 0.01 0.01 0.01 0.01 0.00 0.00 0.01 0.01 0.00 0.01 0.01 0.01 0.01 0.01 0.01 0.01 0.02 0.02 0.05 0.08 0.05 0.03 0.03 0.03 0.05 0.06 0.07 0.07 0.07 0.06
0.00 0.00 0.00 0.00 0.00 0.00 0.01 0.00 0.01 0.01 0.02 0.02 0.01 0.00 0.01 0.02 0.01 0.01 0.00 0.01 0.00 0.01 0.01 0.01 0.03 0.01 0.01 0.01 0.01 0.01 0.01 0.01 0.02 0.05 0.06 0.05 0.04 0.05 0.06 0.07 0.07 0.06 0.05 0.04
0.00 0.00 0.00 0.00 0.00 0.00 0.00 0.00 0.00 0.00 0.01 0.03 0.03 0.02 0.02 0.04 0.03 0.03 0.01 0.01 0.01 0.01 0.01 0.01 0.01 0.02 0.02 0.01 0.00 0.00 0.01 0.01 0.02 0.02 0.02 0.03 0.03 0.05 0.08 0.07 0.04 0.04 0.04 0.03
0.00 0.00 0.00 0.00 0.00 0.00 0.00 0.00 0.00 0.01 0.01 0.02 0.03 0.03 0.05 0.07 0.07 0.05 0.03 0.01 0.01 0.02 0.02 0.01 0.01 0.02 0.06 0.06 0.02 0.01 0.01 0.03 0.04 0.03 0.03 0.02 0.03 0.03 0.04 0.06 0.05 0.04 0.04 0.04
0.00 0.00 0.00 0.00 0.00 0.00 0.00 0.00 0.01 0.01 0.01 0.01 0.02 0.03 0.03 0.04 0.03 0.02 0.02 0.02 0.01 0.01 0.01 0.01 0.01 0.02 0.03 0.05 0.07 0.04 0.02 0.02 0.04 0.03 0.02 0.02 0.02 0.02 0.02 0.03 0.02 0.03 0.04 0.06
0.00 0.00 0.00 0.00 0.00 0.00 0.01 0.01 0.01 0.02 0.01 0.01 0.01 0.02 0.03 0.04 0.03 0.02 0.02 0.03 0.01 0.01 0.00 0.00 0.00 0.01 0.03 0.03 0.06 0.05 0.02 0.02 0.02 0.02 0.02 0.01 0.02 0.02 0.02 0.03 0.02 0.03 0.05 0.06
0.00 0.00 0.00 0.00 0.00 0.00 0.01 0.02 0.02 0.02 0.02 0.01 0.01 0.02 0.02 0.02 0.01 0.01 0.01 0.01 0.01 0.01 0.00 0.01 0.01 0.02 0.02 0.03 0.03 0.05 0.04 0.04 0.03 0.03 0.03 0.03 0.02 0.03 0.03 0.03 0.03 0.04 0.05 0.06
0.00 0.00 0.00 0.00 0.00 0.01 0.01 0.02 0.03 0.03 0.02 0.01 0.02 0.03 0.03 0.03 0.04 0.02 0.01 0.01 0.01 0.01 0.01 0.01 0.01 0.02 0.03 0.04 0.04 0.07 0.06 0.05 0.05 0.05 0.04 0.04 0.04 0.04 0.04 0.04 0.04 0.05 0.05 0.06
0.00 0.00 0.00 0.00 0.00 0.00 0.02 0.02 0.02 0.03 0.02 0.02 0.01 0.01 0.03 0.04 0.04 0.03 0.02 0.02 0.01 0.01 0.01 0.01 0.02 0.02 0.02 0.03 0.04 0.04 0.04 0.04 0.05 0.07 0.08 0.07 0.07 0.06 0.06 0.07 0.07 0.08 0.07 0.07
0.00 0.00 0.00 0.00 0.00 0.00 0.00 0.02 0.02 0.02 0.02 0.01 0.01 0.02 0.02 0.04 0.03 0.04 0.03 0.02 0.02 0.02 0.02 0.01 0.01 0.02 0.02 0.03 0.05 0.04 0.04 0.03 0.03 0.05 0.08 0.10 0.13 0.12 0.12 0.13 0.13 0.12 0.11 0.10
0.00 0.00 0.00 0.00 0.00 0.00 0.00 0.01 0.01 0.02 0.01 0.01 0.02 0.02 0.02 0.02 0.02 0.02 0.02 0.02 0.01 0.01 0.01 0.01 0.01 0.01 0.02 0.03 0.04 0.04 0.04 0.04 0.04 0.05 0.07 0.09 0.12 0.13 0.14 0.14 0.14 0.10 0.08 0.08
0.00 0.00 0.00 0.00 0.00 0.01 0.00 0.00 0.00 0.01 0.01 0.02 0.03 0.04 0.03 0.01 0.01 0.01 0.01 0.01 0.01 0.01 0.01 0.01 0.01 0.02 0.03 0.04 0.06 0.08 0.11 0.13 0.11 0.09 0.09 0.08 0.09 0.10 0.10 0.10 0.09 0.07 0.06 0.06
0.00 0.00 0.00 0.00 0.00 0.00 0.01 0.02 0.01 0.03 0.04 0.04 0.03 0.05 0.04 0.03 0.02 0.02 0.01 0.01 0.01 0.01 0.01 0.02 0.01 0.02 0.02 0.03 0.05 0.08 0.09 0.11 0.11 0.10 0.10 0.08 0.07 0.06 0.06 0.07 0.07 0.08 0.08 0.07
0.00 0.00 0.00 0.00 0.01 0.01 0.02 0.02 0.02 0.03 0.05 0.07 0.06 0.03 0.02 0.02 0.05 0.04 0.02 0.01 0.01 0.01 0.01 0.01 0.01 0.02 0.02 0.02 0.03 0.06 0.11 0.11 0.11 0.10 0.08 0.07 0.06 0.06 0.06 0.08 0.08 0.07 0.07 0.06
0.00 0.00 0.00 0.00 0.02 0.03 0.03 0.01 0.01 0.04 0.07 0.04 0.02 0.02 0.01 0.02 0.03 0.03 0.02 0.01 0.01 0.01 0.01 0.01 0.02 0.02 0.02 0.03 0.04 0.05 0.07 0.08 0.08 0.07 0.06 0.05 0.05 0.06 0.06 0.09 0.14 0.14 0.09 0.06
0.00 0.00 0.00 0.01 0.02 0.04 0.02 0.02 0.02 0.03 0.02 0.01 0.01 0.01 0.02 0.02 0.02 0.02 0.03 0.03 0.02 0.02 0.01 0.01 0.02 0.03 0.03 0.04 0.04 0.04 0.05 0.05 0.05 0.05 0.05 0.05 0.05 0.05 0.05 0.06 0.06 0.09 0.10 0.07
0.01 0.01 0.01 0.02 0.03 0.02 0.01 0.01 0.01 0.01 0.01 0.00 0.01 0.01 0.02 0.02 0.02 0.01 0.02 0.02 0.02 0.01 0.02 0.02 0.03 0.04 0.04 0.05 0.05 0.04 0.03 0.03 0.03 0.04 0.05 0.07 0.07 0.07 0.07 0.07 0.08 0.07 0.07 0.06
0.01 0.01 0.03 0.03 0.03 0.02 0.01 0.03 0.04 0.01 0.01 0.01 0.01 0.01 0.01 0.01 0.01 0.02 0.02 0.02 0.03 0.02 0.02 0.03 0.04 0.05 0.04 0.04 0.04 0.03 0.02 0.02 0.02 0.03 0.03 0.04 0.06 0.08 0.08 0.06 0.05 0.04 0.04 0.05
0.03 0.02 0.03 0.04 0.05 0.04 0.02 0.03 0.07 0.01 0.02 0.01 0.01 0.01 0.01 0.01 0.01 0.02 0.02 0.03 0.03 0.03 0.03 0.04 0.04 0.04 0.05 0.05 0.04 0.03 0.02 0.02 0.03 0.03 0.03 0.03 0.04 0.05 0.05 0.05 0.05 0.05 0.05 0.04
0.03 0.03 0.05 0.04 0.04 0.04 0.03 0.01 0.03 0.02 0.02 0.01 0.01 0.01 0.01 0.02 0.02 0.02 0.02 0.03 0.05 0.05 0.05 0.05 0.04 0.04 0.05 0.03 0.03 0.04 0.04 0.03 0.04 0.04 0.04 0.03 0.03 0.03 0.03 0.04 0.05 0.06 0.06 0.07
MSLP
1003.20 1003.84 1004.36 1004.74 1005.01 1005.18 1005.27 1005.26 1005.14 1004.88 1004.48 1003.93 1003.27 1002.55 1001.86 1001.29 1000.92 1000.81 1000.96 1001.35 1001.94 1002.64 1003.39 1004.11 1004.76 1005.32 1005.80 1006.23 1006.65 1007.06 1007.48 1007.90 1008.30 1008.66 1008.97 1009.20 1009.37 1009.50 1009.60 1009.73 1009.89 1010.10 1010.37 1010.67
1003.55 1004.04 1004.41 1004.67 1004.87 1005.03 1005.14 1005.19 1005.16 1004.99 1004.65 1004.14 1003.47 1002.71 1001.93 1001.26 1000.77 1000.53 1000.58 1000.91 1001.45 1002.14 1002.88 1003.61 1004.27 1004.85 1005.35 1005.81 1006.25 1006.70 1007.17 1007.66 1008.14 1008.58 1008.94 1009.21 1009.40 1009.50 1009.57 1009.62 1009.72 1009.86 1010.08 1010.36
1003.72 1004.03 1004.24 1004.39 1004.53 1004.68 1004.85 1005.01 1005.11 1005.08 1004.86 1004.44 1003.82 1003.06 1002.24 1001.47 1000.87 1000.50 1000.43 1000.63 1001.08 1001.68 1002.37 1003.06 1003.69 1004.26 1004.76 1005.22 1005.69 1006.18 1006.72 1007.30 1007.87 1008.40 1008.86 1009.20 1009.41 1009.52 1009.56 1009.56 1009.59 1009.67 1009.82 1010.06
1003.72 1003.87 1003.94 1004.00 1004.10 1004.28 1004.54 1004.85 1005.11 1005.27 1005.23 1004.95 1004.43 1003.70 1002.87 1002.03 1001.32 1000.82 1000.59 1000.63 1000.92 1001.39 1001.96 1002.55 1003.11 1003.62 1004.08 1004.53 1005.01 1005.54 1006.15 1006.80 1007.48 1008.11 1008.66 1009.09 1009.36 1009.50 1009.53 1009.50 1009.47 1009.48 1009.58 1009.78
1003.65 1003.66 1003.62 1003.62 1003.72 1003.96 1004.33 1004.80 1005.26 1005.62 1005.79 1005.68 1005.29 1004.65 1003.83 1002.96 1002.15 1001.51 1001.10 1000.96 1001.06 1001.35 1001.75 1002.20 1002.63 1003.05 1003.44 1003.85 1004.31 1004.85 1005.49 1006.20 1006.95 1007.68 1008.32 1008.83 1009.18 1009.36 1009.41 1009.37 1009.31 1009.28 1009.34 1009.49
1003.61 1003.51 1003.41 1003.37 1003.49 1003.79 1004.28 1004.90 1005.56 1006.13 1006.50 1006.59 1006.36 1005.83 1005.06 1004.18 1003.30 1002.54 1001.97 1001.64 1001.54 1001.62 1001.83 1002.10 1002.38 1002.66 1002.94 1003.26 1003.66 1004.16 1004.78 1005.51 1006.30 1007.08 1007.79 1008.38 1008.80 1009.04 1009.13 1009.12 1009.06 1009.03 1009.05 1009.18
1003.69 1003.53 1003.38 1003.32 1003.45 1003.81 1004.39 1005.14 1005.95 1006.70 1007.26 1007.53 1007.47 1007.07 1006.40 1005.55 1004.65 1003.81 1003.12 1002.63 1002.34 1002.22 1002.23 1002.30 1002.41 1002.53 1002.67 1002.86 1003.14 1003.55 1004.10 1004.77 1005.53 1006.32 1007.06 1007.69 1008.18 1008.50 1008.66 1008.70 1008.69 1008.67 1008.71 1008.84
1003.96 1003.76 1003.58 1003.51 1003.63 1004.00 1004.61 1005.42 1006.33 1007.20 1007.91 1008.34 1008.44 1008.20 1007.66 1006.89 1006.03 1005.18 1004.42 1003.82 1003.39 1003.11 1002.94 1002.83 1002.76 1002.70 1002.67 1002.69 1002.81 1003.06 1003.47 1004.02 1004.69 1005.41 1006.14 1006.79 1007.33 1007.72 1007.97 1008.10 1008.17 1008.22 1008.30 1008.44
1004.45 1004.24 1004.03 1003.93 1004.00 1004.32 1004.90 1005.69 1006.60 1007.51 1008.30 1008.86 1009.11 1009.04 1008.65 1008.03 1007.27 1006.48 1005.74 1005.10 1004.59 1004.19 1003.89 1003.64 1003.40 1003.17 1002.95 1002.78 1002.70 1002.75 1002.95 1003.32 1003.83 1004.43 1005.08 1005.72 1006.28 1006.74 1007.09 1007.34 1007.51 1007.66 1007.81 1008.00
1005.13 1004.92 1004.69 1004.52 1004.51 1004.73 1005.18 1005.86 1006.70 1007.58 1008.38 1009.01 1009.39 1009.47 1009.27 1008.83 1008.24 1007.58 1006.93 1006.33 1005.81 1005.38 1004.99 1004.63 1004.26 1003.88 1003.48 1003.12 1002.82 1002.63 1002.60 1002.73 1003.03 1003.47 1004.00 1004.58 1005.15 1005.67 1006.11 1006.48 1006.78 1007.05 1007.29 1007.54
1005.93 1005.74 1005.49 1005.25 1005.12 1005.17 1005.45 1005.95 1006.62 1007.39 1008.14 1008.79 1009.25 1009.49 1009.48 1009.26 1008.87 1008.40 1007.90 1007.41 1006.95 1006.54 1006.13 1005.71 1005.25 1004.75 1004.21 1003.67 1003.16 1002.74 1002.46 1002.34 1002.41 1002.65 1003.04 1003.52 1004.07 1004.62 1005.15 1005.63 1006.07 1006.45 1006.79 1007.12
1006.78 1006.62 1006.34 1006.03 1005.77 1005.64 1005.70 1005.97 1006.44 1007.03 1007.69 1008.31 1008.83 1009.19 1009.36 1009.35 1009.20 1008.95 1008.63 1008.29 1007.94 1007.59 1007.21 1006.78 1006.28 1005.71 1005.06 1004.38 1003.70 1003.08 1002.57 1002.22 1002.06 1002.10 1002.32 1002.70 1003.19 1003.75 1004.34 1004.92 1005.46 1005.95 1006.39 1006.78
1007.57 1007.46 1007.18 1006.82 1006.44 1006.13 1005.98 1006.01 1006.25 1006.66 1007.17 1007.74 1008.27 1008.73 1009.06 1009.25 1009.31 1009.27 1009.15 1008.97 1008.75 1008.48 1008.16 1007.75 1007.26 1006.65 1005.96 1005.19 1004.40 1003.63 1002.95 1002.41 1002.05 1001.90 1001.97 1002.22 1002.65 1003.19 1003.80 1004.44 1005.06 1005.63 1006.14 1006.56
1008.24 1008.19 1007.94 1007.55 1007.09 1006.65 1006.31 1006.14 1006.16 1006.38 1006.76 1007.24 1007.77 1008.28 1008.73 1009.08 1009.32 1009.46 1009.51 1009.48 1009.38 1009.20 1008.94 1008.59 1008.12 1007.54 1006.84 1006.05 1005.21 1004.37 1003.58 1002.91 1002.41 1002.11 1002.04 1002.18 1002.51 1003.01 1003.61 1004.27 1004.92 1005.53 1006.07 1006.51
1008.74 1008.77 1008.57 1008.19 1007.70 1007.18 1006.72 1006.39 1006.26 1006.31 1006.56 1006.96 1007.46 1007.99 1008.51 1008.97 1009.34 1009.61 1009.78 1009.86 1009.85 1009.75 1009.55 1009.25 1008.84 1008.30 1007.65 1006.90 1006.08 1005.23 1004.41 1003.69 1003.10 1002.70 1002.51 1002.55 1002.80 1003.22 1003.78 1004.40 1005.05 1005.65 1006.18 1006.61
1009.06 1009.15 1009.03 1008.70 1008.23 1007.70 1007.19 1006.78 1006.53 1006.48 1006.63 1006.96 1007.41 1007.95 1008.49 1009.01 1009.45 1009.79 1010.03 1010.17 1010.20 1010.15 1009.99 1009.74 1009.38 1008.92 1008.34 1007.67 1006.93 1006.15 1005.36 1004.64 1004.03 1003.58 1003.32 1003.27 1003.43 1003.76 1004.24 1004.80 1005.39 1005.95 1006.44 1006.82
1009.19 1009.35 1009.30 1009.05 1008.66 1008.17 1007.67 1007.25 1006.96 1006.85 1006.94 1007.21 1007.62 1008.13 1008.67 1009.20 1009.65 1010.02 1010.27 1010.42 1010.47 1010.41 1010.28 1010.06 1009.75 1009.36 1008.88 1008.32 1007.69 1007.02 1006.32 1005.66 1005.08 1004.63 1004.33 1004.21 1004.27 1004.51 1004.89 1005.35 1005.85 1006.34 1006.76 1007.09
1009.18 1009.37 1009.39 1009.23 1008.93 1008.53 1008.10 1007.72 1007.45 1007.34 1007.41 1007.64 1008.02 1008.49 1009.01 1009.50 1009.94 1010.28 1010.51 1010.63 1010.64 1010.57 1010.42 1010.22 1009.95 1009.63 1009.24 1008.80 1008.30 1007.75 1007.18 1006.62 1006.11 1005.68 1005.37 1005.20 1005.19 1005.33 1005.59 1005.95 1006.34 1006.73 1007.07 1007.33
1009.06 1009.25 1009.32 1009.24 1009.04 1008.75 1008.43 1008.13 1007.92 1007.84 1007.91 1008.13 1008.49 1008.92 1009.39 1009.85 1010.23 1010.53 1010.71 1010.77 1010.74 1010.63 1010.46 1010.24 1010.00 1009.73 1009.43 1009.09 1008.72 1008.30 1007.86 1007.41 1006.98 1006.60 1006.30 1006.10 1006.02 1006.07 1006.23 1006.47 1006.75 1007.04 1007.30 1007.49
1008.88 1009.05 1009.14 1009.12 1009.01 1008.83 1008.61 1008.41 1008.28 1008.25 1008.35 1008.58 1008.91 1009.31 1009.74 1010.14 1010.47 1010.71 1010.83 1010.84 1010.75 1010.60 1010.39 1010.16 1009.93 1009.69 1009.45 1009.20 1008.93 1008.64 1008.31 1007.97 1007.62 1007.30 1007.02 1006.80 1006.68 1006.65 1006.70 1006.83 1007.01 1007.21 1007.39 1007.53
1008.70 1008.81 1008.89 1008.91 1008.87 1008.78 1008.66 1008.56 1008.51 1008.53 1008.66 1008.89 1009.21 1009.58 1009.96 1010.31 1010.59 1010.78 1010.85 1010.81 1010.68 1010.49 1010.25 1010.01 1009.77 1009.55 1009.36 1009.17 1008.98 1008.78 1008.55 1008.30 1008.03 1007.76 1007.50 1007.28 1007.11 1007.01 1006.98 1007.02 1007.10 1007.21 1007.33 1007.43
1008.54 1008.59 1008.64 1008.68 1008.68 1008.65 1008.62 1008.59 1008.60 1008.67 1008.83 1009.06 1009.35 1009.69 1010.03 1010.33 1010.57 1010.71 1010.74 1010.68 1010.52 1010.30 1010.06 1009.80 1009.57 1009.36 1009.19 1009.04 1008.90 1008.76 1008.61 1008.42 1008.22 1007.98 1007.75 1007.52 1007.33 1007.17 1007.07 1007.03 1007.03 1007.07 1007.13 1007.20
1008.42 1008.41 1008.43 1008.46 1008.48 1008.50 1008.51 1008.54 1008.60 1008.70 1008.86 1009.08 1009.35 1009.64 1009.94 1010.20 1010.39 1010.50 1010.52 1010.44 1010.28 1010.06 1009.81 1009.56 1009.34 1009.14 1008.98 1008.86 1008.75 1008.65 1008.54 1008.41 1008.24 1008.04 1007.82 1007.59 1007.37 1007.18 1007.02 1006.90 1006.83 1006.81 1006.83 1006.87
1008.34 1008.29 1008.27 1008.29 1008.32 1008.36 1008.41 1008.46 1008.54 1008.65 1008.80 1009.00 1009.22 1009.47 1009.71 1009.93 1010.09 1010.18 1010.18 1010.11 1009.96 1009.76 1009.54 1009.31 1009.09 1008.91 1008.77 1008.66 1008.57 1008.49 1008.41 1008.30 1008.15 1007.98 1007.77 1007.54 1007.30 1007.07 1006.86 1006.69 1006.56 1006.49 1006.46 1006.48
1008.29 1008.20 1008.17 1008.18 1008.21 1008.27 1008.32 1008.39 1008.47 1008.57 1008.70 1008.85 1009.03 1009.21 1009.40 1009.57 1009.69 1009.76 1009.76 1009.70 1009.59 1009.42 1009.23 1009.03 1008.85 1008.69 1008.56 1008.46 1008.38 1008.31 1008.23 1008.14 1008.01 1007.84 1007.64 1007.41 1007.16 1006.90 1006.66 1006.44 1006.26 1006.14 1006.07 1006.05
1008.22 1008.13 1008.09 1008.10 1008.14 1008.20 1008.27 1008.34 1008.41 1008.49 1008.58 1008.68 1008.80 1008.92 1009.04 1009.16 1009.24 1009.29 1009.30 1009.26 1009.17 1009.04 1008.89 1008.73 1008.58 1008.45 1008.34 1008.25 1008.18 1008.11 1008.04 1007.94 1007.82 1007.66 1007.46 1007.23 1006.97 1006.70 1006.42 1006.17 1005.96 1005.79 1005.68 1005.62
Thickness
5858 5845 5838 5849 5858 5858 5857 5852 5848 5858 5881 5877 5868 5866 5872 5880 5877 5869 5862 5856 5851 5849 5850 5848 5843 5839 5832 5825 5819 5814 5810 5806 5802 5798 5794 5790 5789 5789 5790 5790 5788 5786 5783 5782
5842 5837 5857 5868 5868 5862 5857 5850 5850 5864 5881 5877 5868 5866 5878 5882 5878 5876 5869 5862 5855 5851 5850 5847 5844 5840 5834 5827 5821 5817 5813 5809 5805 5802 5799 5796 5794 5792 5791 5791 5790 5787 5785 5783
5833 5851 5869 5863 5857 5853 5853 5851 5852 5855 5869 5876 5866 5854 5863 5876 5881 5879 5877 5872 5865 5857 5852 5847 5844 5841 5837 5830 5825 5822 5817 5813 5809 5806 5802 5799 5795 5792 5790 5789 5788 5788 5786 5785
5845 5863 5864 5856 5852 5854 5843 5864 5862 5857 5848 5844 5853 5827 5848 5861 5863 5867 5872 5871 5869 5863 5858 5851 5846 5842 5840 5836 5832 5827 5820 5815 5811 5809 5803 5798 5792 5789 5789 5789 5789 5789 5788 5786
5843 5857 5854 5848 5855 5859 5854 5868 5862 5854 5845 5838 5844 5826 5836 5859 5851 5859 5869 5872 5872 5869 5864 5856 5851 5847 5845 5841 5836 5830 5823 5817 5813 5809 5805 5800 5796 5794 5794 5792 5789 5788 5788 5787
5851 5869 5866 5862 5868 5867 5864 5860 5855 5851 5841 5815 5830 5823 5822 5846 5852 5855 5868 5874 5874 5872 5868 5861 5857 5852 5847 5844 5839 5832 5824 5818 5814 5810 5807 5802 5798 5796 5793 5790 5787 5786 5786 5786
5833 5850 5866 5870 5853 5859 5854 5832 5812 5807 5808 5809 5834 5828 5830 5855 5864 5865 5867 5873 5875 5873 5868 5861 5855 5850 5846 5843 5838 5833 5825 5818 5816 5811 5807 5804 5800 5798 5794 5791 5789 5787 5786 5785
5816 5823 5852 5861 5851 5841 5844 5835 5805 5790 5797 5811 5825 5817 5835 5857 5865 5870 5870 5870 5870 5868 5865 5861 5856 5852 5848 5844 5840 5834 5826 5819 5816 5812 5809 5806 5803 5799 5796 5793 5793 5790 5789 5788
5818 5824 5859 5864 5864 5851 5832 5833 5844 5823 5815 5803 5811 5823 5836 5850 5853 5857 5858 5859 5859 5861 5862 5858 5855 5852 5847 5843 5840 5836 5828 5821 5817 5814 5810 5806 5804 5800 5796 5795 5794 5793 5791 5790
5825 5813 5840 5858 5858 5853 5847 5841 5830 5814 5794 5789 5806 5812 5815 5826 5833 5841 5842 5847 5853 5856 5856 5855 5852 5850 5848 5844 5841 5837 5830 5822 5818 5814 5810 5807 5804 5802 5799 5797 5794 5792 5790 5788
5826 5807 5819 5835 5830 5829 5834 5828 5823 5819 5816 5795 5789 5802 5837 5832 5834 5834 5837 5843 5845 5848 5851 5851 5849 5849 5844 5841 5837 5832 5828 5821 5816 5814 5810 5808 5804 5802 5799 5795 5793 5791 5787 5785
5817 5807 5800 5818 5843 5850 5837 5829 5819 5797 5797 5806 5801 5803 5842 5837 5837 5837 5836 5836 5838 5842 5845 5845 5843 5842 5838 5837 5835 5829 5826 5821 5817 5814 5809 5806 5803 5800 5796 5792 5790 5788 5784 5782
5797 5787 5776 5789 5812 5829 5824 5828 5826 5818 5808 5800 5793 5799 5837 5834 5832 5833 5828 5829 5831 5833 5836 5835 5831 5831 5830 5829 5828 5826 5822 5818 5815 5811 5806 5802 5799 5796 5792 5790 5787 5784 5781 5778
5789 5777 5770 5768 5787 5807 5806 5813 5818 5809 5797 5793 5797 5801 5816 5818 5818 5820 5820 5821 5823 5823 5824 5824 5821 5819 5820 5820 5820 5820 5816 5814 5811 5807 5802 5797 5795 5792 5788 5786 5783 5780 5776 5773
5780 5765 5772 5783 5797 5803 5801 5804 5808 5803 5801 5794 5798 5800 5804 5810 5810 5810 5811 5812 5810 5810 5809 5810 5809 5809 5811 5811 5811 5811 5809 5807 5806 5801 5796 5792 5790 5787 5783 5780 5777 5775 5771 5769
5767 5755 5758 5764 5783 5790 5791 5798 5802 5801 5801 5800 5799 5795 5809 5807 5805 5800 5801 5800 5797 5796 5796 5798 5800 5799 5799 5799 5799 5800 5799 5799 5798 5793 5789 5786 5782 5779 5776 5773 5771 5767 5764 5762
5750 5743 5737 5742 5766 5772 5769 5787 5793 5796 5802 5797 5786 5790 5799 5794 5792 5790 5791 5791 5789 5787 5788 5789 5790 5790 5789 5790 5790 5789 5788 5789 5787 5784 5781 5777 5774 5771 5769 5766 5763 5760 5757 5755
5737 5731 5730 5733 5738 5726 5766 5797 5795 5788 5789 5796 5791 5789 5787 5785 5783 5784 5785 5781 5779 5779 5780 5781 5782 5782 5783 5783 5783 5782 5780 5776 5773 5772 5771 5769 5766 5763 5760 5758 5755 5753 5751 5749
5740 5726 5719 5721 5722 5737 5759 5775 5778 5771 5766 5782 5778 5776 5777 5777 5773 5769 5774 5773 5771 5771 5771 5773 5774 5774 5774 5772 5772 5770 5768 5765 5762 5760 5760 5759 5758 5755 5752 5750 5748 5746 5744 5742
5734 5727 5713 5713 5708 5713 5739 5765 5776 5764 5743 5765 5764 5761 5762 5761 5746 5748 5759 5762 5761 5761 5762 5762 5763 5763 5761 5761 5761 5758 5754 5753 5752 5751 5751 5750 5748 5745 5743 5741 5738 5737 5735 5733
5712 5710 5706 5706 5704 5717 5741 5758 5759 5729 5726 5749 5753 5751 5749 5744 5741 5745 5750 5749 5749 5748 5750 5751 5750 5749 5748 5749 5748 5744 5742 5741 5742 5742 5741 5739 5737 5735 5734 5732 5730 5727 5726 5724
5701 5699 5699 5701 5694 5700 5733 5739 5728 5724 5738 5740 5741 5741 5737 5735 5736 5736 5735 5734 5735 5735 5736 5737 5736 5736 5737 5737 5735 5731 5730 5731 5732 5731 5729 5727 5726 5725 5724 5721 5719 5718 5715 5712
5695 5696 5696 5693 5692 5707 5719 5720 5726 5730 5727 5728 5728 5728 5726 5722 5722 5722 5722 5722 5723 5723 5724 5724 5723 5722 5723 5724 5722 5718 5719 5720 5719 5718 5716 5715 5715 5714 5712 5710 5708 5707 5705 5702
5686 5692 5687 5683 5689 5699 5706 5711 5714 5717 5715 5717 5718 5716 5715 5710 5710 5709 5709 5709 5709 5711 5711 5712 5711 5709 5708 5710 5710 5709 5709 5709 5707 5704 5703 5703 5702 5702 5700 5699 5698 5695 5693 5691
5666 5671 5669 5668 5678 5684 5690 5696 5699 5702 5704 5705 5706 5706 5704 5702 5699 5698 5697 5697 5698 5698 5698 5699 5699 5697 5697 5698 5698 5698 5698 5696 5694 5692 5691 5691 5691 5690 5688 5686 5684 5684 5682 5682
5661 5659 5657 5659 5669 5671 5675 5686 5688 5689 5691 5692 5693 5693 5694 5692 5689 5688 5687 5687 5687 5687 5687 5687 5686 5686 5686 5686 5686 5686 5686 5685 5682 5680 5679 5680 5680 5678 5677 5674 5672 5670 5670 5669